North Las Vegas, NV

7:45 AM PST on November 20, 2018 (GMT -0800)
North Las Vegas

Weather History for KVGT - September, 2018

Change the Weather History Date:

Friday, September 14, 2018

  Actual Average Record
Temperature  
Mean Temperature 84 °F 82 °F  
Max Temperature 99 °F 94 °F 104 °F (2000)
Min Temperature 68 °F 70 °F 62 °F (2011)
Degree Days  
Heating Degree Days 0 0  
Month to date heating degree days 0 0  
Since 1 July heating degree days 0 0  
Cooling Degree Days 19 17  
Month to date cooling degree days 314 268  
Year to date cooling degree days 3462 2914  
Growing Degree Days 34 (Base 50)    
Moisture  
Dew Point 24 °F    
Average Humidity 14    
Maximum Humidity 22    
Minimum Humidity 5    
Precipitation  
Precipitation 0.00 in 0.01 in 0.77 in (2011)
Month to date precipitation 0.01 0.23  
Year to date precipitation 1.84 3.83  
Sea Level Pressure  
Sea Level Pressure 29.81 in    
Wind  
Wind Speed 7 mph (South)    
Max Wind Speed 21 mph    
Max Gust Speed 25 mph    
Visibility 10 miles    
Events      
T = Trace of Precipitation, MM = Missing Value Source: NWS Daily Summary

Daily Weather History Graph

Daily Weather History Graph

Search for Another Location

Airport or City:

Astronomy

Sep. 14, 2018 Rise Set
Actual Time 6:22 AM PDT 6:49 PM PDT
Civil Twilight 5:56 AM PDT 7:15 PM PDT
Nautical Twilight 5:26 AM PDT 7:45 PM PDT
Astronomical Twilight 4:55 AM PDT 8:16 PM PDT
Moon 11:33 AM PDT (9/14) 10:20 PM PDT (9/14)
Length of Visible Light 13h 18m
Length of Day
12h 26m
Waxing Crescent, 29% of the Moon is Illuminated
Sep 14
Waxing Crescent
Sep 16
First Quarter
Sep 24
Full
Oct 2
Last Quarter
Oct 8
New

Hourly Weather History & Observations

Time (PDT) Temp. Dew Point Humidity Pressure Visibility Wind Dir Wind Speed Gust Speed Precip Events Conditions
12:53 AM 82.9 °F 23.0 °F 11% 29.83 in 10.0 mi Calm Calm - N/A   Clear
1:53 AM 80.1 °F 24.1 °F 13% 29.83 in 10.0 mi South 3.5 mph - N/A   Clear
2:53 AM 77.0 °F 24.1 °F 14% 29.83 in 10.0 mi South 3.5 mph - N/A   Clear
3:53 AM 73.0 °F 25.0 °F 17% 29.84 in 10.0 mi ESE 4.6 mph - N/A   Clear
4:53 AM 73.0 °F 26.1 °F 17% 29.83 in 10.0 mi NE 4.6 mph - N/A   Clear
5:53 AM 70.0 °F 27.0 °F 20% 29.85 in 10.0 mi NNW 4.6 mph - N/A   Clear
6:53 AM 70.0 °F 28.9 °F 22% 29.88 in 10.0 mi NW 3.5 mph - N/A   Clear
7:53 AM 75.0 °F 30.0 °F 19% 29.88 in 10.0 mi NE 3.5 mph - N/A   Clear
8:53 AM 80.1 °F 27.0 °F 14% 29.88 in 10.0 mi East 3.5 mph - N/A   Clear
9:53 AM 86.0 °F 26.1 °F 11% 29.87 in 10.0 mi SSE 9.2 mph - N/A   Clear
10:53 AM 90.0 °F 21.0 °F 8% 29.87 in 10.0 mi ESE 9.2 mph - N/A   Clear
11:53 AM 93.0 °F 17.1 °F 6% 29.85 in 10.0 mi SE 11.5 mph - N/A   Clear
12:53 PM 96.1 °F 17.1 °F 6% 29.81 in 10.0 mi SSE 11.5 mph 17.3 mph N/A   Clear
1:53 PM 97.0 °F 12.9 °F 5% 29.80 in 10.0 mi SSW 6.9 mph 20.7 mph N/A   Clear
2:53 PM 99.0 °F 18.0 °F 5% 29.78 in 10.0 mi SSW 16.1 mph - N/A   Clear
3:53 PM 99.0 °F 21.0 °F 6% 29.76 in 10.0 mi SW 12.7 mph 21.9 mph N/A   Clear
4:53 PM 98.1 °F 21.0 °F 6% 29.75 in 10.0 mi WSW 11.5 mph - N/A   Clear
5:53 PM 98.1 °F 24.1 °F 7% 29.75 in 10.0 mi WSW 10.4 mph - N/A   Clear
6:53 PM 95.0 °F 27.0 °F 9% 29.75 in 10.0 mi SW 9.2 mph - N/A   Clear
7:53 PM 91.9 °F 28.0 °F 10% 29.76 in 10.0 mi WSW 6.9 mph - N/A   Clear
8:53 PM 90.0 °F 26.1 °F 10% 29.78 in 10.0 mi WSW 6.9 mph - N/A   Clear
9:53 PM 86.0 °F 27.0 °F 12% 29.78 in 10.0 mi SSW 5.8 mph - N/A   Clear
10:53 PM 84.0 °F 28.0 °F 13% 29.78 in 10.0 mi Calm Calm - N/A   Clear
11:53 PM 79.0 °F 30.0 °F 17% 29.79 in 10.0 mi NE 3.5 mph - N/A   Clear